Tracking 17265 objects as of 4-September-2015
HD Live streaming from Space Station

Track Soyuz TMA-18M
and Space Station

ZY 3

Track ZY 3 now!
10-day predictions
ZY 3 is classified as:


NORAD ID: 38046
Int'l Code: 2012-001A
Perigee: 507.2 km
Apogee: 510.9 km
Inclination: 97.4 °
Period: 94.7 minutes
Semi major axis: 6880 km
RCS: 5.391 m2 (large)
Launch date: January 9, 2012
Source: People's Republic of China (PRC)
Your satellite tracking list
Your tracking list is empty





NASA's NSSDC Master Catalog

Two Line Element Set (TLE):
1 38046U 12001A   15245.80248429 +.00003120 +00000-0 +14246-3 0  9995
2 38046 097.3628 318.7832 0002693 126.4336 350.4945 15.21315398202614

Source of the keplerian elements: AFSPC

N2YO: 468